Weather History for Kaneohe MCBH, HI

Change the Weather History Date:

Friday, June 28, 2013

  Actual Average Record
Temperature  
Mean Temperature 78 °F -  
Max Temperature 84 °F 79 °F 84 °F (2000)
Min Temperature 73 °F 72 °F 71 °F (1998)
Cooling Degree Days 14    
Growing Degree Days 28 (Base 50)    
Moisture  
Dew Point 68 °F    
Average Humidity 73    
Maximum Humidity 83    
Minimum Humidity 55    
Precipitation  
Precipitation 0.04 in - - ()
Sea Level Pressure  
Sea Level Pressure 30.00 in    
Wind  
Wind Speed 6 mph (ENE)    
Max Wind Speed 12 mph    
Max Gust Speed 20 mph    
Visibility 9 miles    
Events Rain    
Averages and records for this station are not official NWS values.
T = Trace of Precipitation, MM = Missing Value Source: NWS Daily Summary

Daily Weather History Graph

Daily Weather History Graph

Search for Another Location

Airport:

Trip Planner

Search our weather history database for the weather conditions in past years. The results will help you decide how hot, cold, wet, or windy it might be!

Date:

Astronomy

Jun. 28, 2013 Rise Set
Actual Time 5:51 AM HST 7:17 PM HST
Civil Twilight 5:26 AM HST 7:42 PM HST
Nautical Twilight 4:57 AM HST 8:11 PM HST
Astronomical Twilight 4:26 AM HST 8:42 PM HST
Moon 11:43 PM HST (6/28) 11:23 AM HST (6/28)
Length of Visible Light 14h 15m
Length of Day
13h 25m
Waning Gibbous, 64% of the Moon is Illuminated
Jun 28
Waning Gibbous
Jun 29
Last Quarter
Jul 7
New
Jul 15
First Quarter
Jul 22
Full

Hourly Weather History & Observations

Time (HST) Temp. Heat Index Dew Point Humidity Pressure Visibility Wind Dir Wind Speed Gust Speed Precip Events Conditions
12:57 AM 73.4 °F - 66.0 °F 78% 30.00 in 10.0 mi East 4.6 mph - N/A   Mostly Cloudy
1:57 AM - - - N/A% 29.99 in 10.0 mi ENE 5.8 mph - N/A   Mostly Cloudy
2:34 AM - - - N/A% 29.99 in 6.2 mi ENE 6.9 mph - N/A   Overcast
2:52 AM - - - N/A% 29.99 in 10.0 mi East 5.8 mph - N/A   Overcast
2:57 AM - - - N/A% 29.98 in 10.0 mi ENE 8.1 mph - N/A   Overcast
3:57 AM 73.4 °F - 68.0 °F 83% 29.98 in 10.0 mi Variable 3.5 mph - N/A   Overcast
4:17 AM 73.4 °F - 68.0 °F 83% 29.99 in 6.2 mi East 4.6 mph - N/A   Overcast
4:57 AM 73.4 °F - 68.0 °F 83% 29.98 in 10.0 mi ENE 5.8 mph - N/A   Scattered Clouds
5:12 AM 73.4 °F - 68.0 °F 83% 29.99 in 6.2 mi East 8.1 mph - N/A   Mostly Cloudy
5:57 AM 73.4 °F - 68.0 °F 83% 29.99 in 10.0 mi ENE 6.9 mph - 0.00 in   Mostly Cloudy
6:04 AM 75.2 °F - 68.0 °F 78% 30.01 in 6.2 mi ENE 5.8 mph - N/A   Mostly Cloudy
6:14 AM 75.2 °F - 68.0 °F 78% 30.01 in 6.2 mi ESE 3.5 mph - 0.03 in Rain Rain
6:26 AM 75.2 °F - 68.0 °F 78% 30.01 in 6.2 mi East 6.9 mph - 0.03 in   Overcast
6:57 AM 75.2 °F - 68.0 °F 78% 30.01 in 10.0 mi Calm Calm - 0.03 in   Overcast
7:57 AM 75.2 °F - 68.0 °F 78% 30.01 in 10.0 mi ENE 8.1 mph - 0.00 in   Mostly Cloudy
8:57 AM 75.2 °F - 69.1 °F 81% 30.02 in 10.0 mi ENE 8.1 mph - N/A   Overcast
9:57 AM 77.0 °F - 69.1 °F 76% 30.03 in 10.0 mi East 11.5 mph 19.6 mph 0.00 in   Overcast
10:34 AM 77.0 °F - 69.8 °F 78% 30.04 in 6.2 mi Variable 5.8 mph - 0.01 in   Overcast
10:57 AM 79.9 °F - 69.1 °F 69% 30.02 in 10.0 mi ENE 10.4 mph - 0.01 in   Mostly Cloudy
11:57 AM 84.2 °F 87.9 °F 69.1 °F 60% 30.01 in 10.0 mi ENE 10.4 mph - N/A   Mostly Cloudy
12:24 PM 84.2 °F 86.6 °F 66.2 °F 55% 30.02 in 6.2 mi East 9.2 mph 17.3 mph N/A   Overcast
12:57 PM 82.0 °F 84.5 °F 66.9 °F 60% 29.99 in 10.0 mi ENE 11.5 mph 17.3 mph N/A   Mostly Cloudy
1:57 PM 82.6 °F 85.1 °F 66.9 °F 59% 29.98 in 10.0 mi NE 9.2 mph - N/A   Overcast
2:57 PM 82.6 °F 86.1 °F 69.1 °F 64% 29.98 in 10.0 mi ENE 10.4 mph 17.3 mph N/A   Scattered Clouds
3:57 PM 81.3 °F 83.6 °F 66.9 °F 61% 29.97 in 10.0 mi ENE 6.9 mph - 0.00 in Rain Light Rain
4:57 PM 81.0 °F 84.4 °F 70.0 °F 69% 29.97 in 10.0 mi ENE 9.2 mph - 0.00 in   Mostly Cloudy
5:57 PM 79.0 °F - 66.0 °F 64% 29.97 in 10.0 mi ENE 8.1 mph - N/A   Mostly Cloudy
6:57 PM 77.5 °F - 68.0 °F 72% 29.98 in 10.0 mi ENE 6.9 mph - N/A   Mostly Cloudy
7:57 PM 77.5 °F - 66.9 °F 70% 29.99 in 10.0 mi ENE 6.9 mph - N/A   Mostly Cloudy
8:57 PM 75.6 °F - 69.1 °F 80% 30.00 in 10.0 mi ENE 8.1 mph - N/A   Mostly Cloudy
9:57 PM 75.6 °F - 68.0 °F 77% 30.01 in 10.0 mi ENE 4.6 mph - N/A   Mostly Cloudy
10:57 PM 75.6 °F - 68.0 °F 77% 30.02 in 10.0 mi East 4.6 mph - N/A   Mostly Cloudy
11:57 PM 74.8 °F - 66.9 °F 76% 30.01 in 10.0 mi East 4.6 mph - N/A   Mostly Cloudy